EHI
0 0 0 0 0 0 1 2 3 2 1 0 0 0 0 0 0 0 0 0 0 0 0 0 0 0 0 0 0 0 0 0 0 0 0 0 0 0 0 0 0 0 0
0 0 0 0 0 0 1 2 2 2 1 0 0 0 0 0 0 0 0 0 0 0 0 0 0 0 0 0 0 0 0 0 0 0 0 0 0 0 0 0 0 0 0
0 0 0 0 0 0 0 1 1 1 0 0 0 0 0 0 0 0 0 0 0 0 0 0 0 0 0 0 0 0 0 0 0 0 0 0 0 0 0 0 0 0 0
0 0 0 0 0 0 0 0 0 0 0 0 0 0 0 0 0 0 0 0 0 0 0 0 0 0 0 0 0 0 0 0 0 0 0 0 0 0 0 0 0 0 0
0 0 0 0 0 0 0 0 0 0 0 0 0 0 0 0 0 0 0 0 0 0 0 0 0 0 0 0 0 0 0 0 0 0 0 0 0 0 0 0 0 0 0
0 0 0 0 0 0 0 0 0 0 0 0 0 0 0 0 0 0 0 0 0 0 0 0 0 0 0 0 0 0 0 0 0 0 0 0 0 0 0 0 0 0 0
0 0 0 0 0 0 0 0 0 0 0 0 0 0 0 0 0 0 0 0 0 0 0 0 0 0 0 0 0 0 0 0 0 0 0 0 0 0 0 0 0 0 0
0 0 0 0 0 0 0 0 0 0 0 0 0 0 0 0 0 0 0 0 0 0 0 0 0 0 0 0 0 0 0 0 0 0 0 0 0 0 0 0 0 0 0
0 0 0 0 0 0 0 0 0 0 0 0 0 0 0 0 0 0 0 0 0 0 0 0 0 0 0 0 0 0 0 0 0 0 0 0 0 0 0 0 0 0 0
0 0 0 0 0 0 0 0 0 0 0 0 0 0 0 0 0 0 0 0 0 0 0 0 0 0 0 0 0 0 0 0 0 0 0 0 0 0 0 0 0 0 0
0 0 0 0 0 0 0 0 0 0 0 0 0 0 0 0 0 0 0 0 0 0 0 0 0 0 0 0 0 0 0 0 0 0 0 0 0 0 0 0 0 0 0
0 0 0 0 0 0 0 0 0 0 0 0 0 0 0 0 0 0 0 0 0 0 0 0 0 0 0 0 0 0 0 0 0 0 0 0 0 0 0 0 0 0 0
0 0 0 0 0 0 0 0 0 0 0 0 0 0 0 0 0 0 0 0 0 0 0 0 0 0 0 0 0 0 0 0 0 0 0 0 0 0 0 0 0 0 0
0 0 0 0 0 0 0 0 0 0 0 0 0 0 0 0 0 0 0 0 0 0 0 0 0 0 0 0 0 0 0 0 0 0 0 0 0 0 0 0 0 0 0
0 0 0 0 0 0 0 0 0 0 0 0 0 0 0 0 0 0 0 0 0 0 0 0 0 0 0 0 0 0 0 0 0 0 0 0 0 0 0 0 0 0 0
0 0 0 0 0 0 0 0 0 0 0 0 0 0 0 0 0 0 0 0 0 0 0 0 0 0 0 0 0 0 0 0 0 0 0 0 0 0 0 0 0 0 0
0 0 0 0 0 0 0 0 0 0 0 0 0 0 0 0 0 0 0 0 0 0 0 0 0 0 0 0 0 0 0 0 0 0 0 0 0 0 0 0 0 0 0
0 0 0 0 0 0 0 0 0 0 0 0 0 0 0 0 0 0 0 0 0 0 0 0 0 0 0 0 0 0 0 0 0 0 0 0 0 0 0 0 0 0 0
0 0 0 0 0 0 0 0 0 0 0 0 0 0 0 0 0 0 0 0 0 0 0 0 0 0 0 0 0 0 0 0 0 0 0 0 0 0 0 0 0 0 0
0 0 0 0 0 0 0 0 0 0 0 0 0 0 0 0 0 0 0 0 0 0 0 0 0 0 0 0 0 0 0 0 0 0 0 0 0 0 0 0 0 0 0
0 0 0 0 0 0 0 0 0 0 0 0 0 0 0 0 0 0 0 0 0 0 0 0 0 0 0 0 0 0 0 0 0 0 0 0 0 0 0 0 0 0 0
0 0 0 0 0 0 0 0 0 0 0 0 0 0 0 0 0 0 0 0 0 0 0 0 0 0 0 0 0 0 0 0 0 0 0 0 0 0 0 0 0 0 0
0 0 0 0 0 0 0 0 0 0 0 0 0 0 0 0 0 0 0 0 0 0 0 0 0 0 0 0 0 0 0 0 0 0 0 0 0 0 0 0 0 0 0
0 0 0 0 0 0 0 0 0 0 0 0 0 0 0 0 0 0 0 0 0 0 0 0 0 0 0 0 0 0 0 0 0 0 0 0 0 0 0 0 0 0 0
0 0 0 0 0 0 0 0 0 0 0 0 0 0 0 0 0 0 0 0 0 0 0 0 0 0 0 0 0 0 0 0 0 0 0 0 0 0 0 0 0 0 0
0 0 0 0 0 0 0 0 0 0 0 0 0 0 0 0 0 0 0 0 0 0 0 0 0 0 0 0 0 0 0 0 0 0 0 0 0 0 0 0 0 0 0
Wind_Speed
2 1 1 1 1 1 1 1 2 2 2 2 2 3 2 2 2 2 2 5 5 5 6 6 6 6 6 6 6 6 7 7 7 6 6 6 6 6 6 6 6 7 7
2 2 1 1 1 1 1 1 2 2 2 2 2 2 2 2 2 2 2 3 4 5 5 5 6 6 5 5 5 5 5 6 6 6 7 7 6 5 5 6 6 7 7
3 2 2 1 1 1 2 2 2 2 2 2 2 2 2 2 2 2 2 2 2 4 5 5 5 5 5 5 4 4 4 5 5 5 6 6 6 6 5 5 6 6 7
3 3 2 1 1 1 2 2 2 2 2 2 2 1 1 2 2 2 2 2 2 2 3 5 5 5 5 4 4 4 4 4 4 4 5 5 5 5 6 5 5 6 6
3 2 2 2 2 1 1 2 2 2 2 2 2 1 1 1 1 2 3 2 2 2 2 4 6 6 5 4 4 3 3 4 4 4 4 4 5 5 6 6 6 6 6
2 2 2 2 2 2 1 2 2 2 2 3 3 2 2 1 1 2 2 2 2 3 3 3 3 3 5 5 4 4 4 3 4 4 4 4 5 5 6 6 6 7 7
3 3 2 2 2 2 2 3 3 3 2 2 3 2 2 2 2 1 1 1 2 2 2 2 2 2 2 5 5 5 5 4 4 4 4 5 5 6 6 6 6 7 7
3 3 3 3 3 3 3 3 3 2 1 1 2 3 1 1 2 1 1 1 1 1 2 2 2 2 1 1 4 6 6 5 5 5 5 6 6 6 7 7 7 7 8
3 3 3 3 3 3 4 4 4 4 3 1 1 3 3 3 1 1 0 0 0 0 0 0 1 1 1 1 2 4 6 6 6 6 7 7 7 7 7 8 8 8 8
3 3 3 4 4 3 4 4 3 3 4 3 1 0 1 3 3 1 1 1 0 1 1 0 0 1 0 1 2 5 6 6 7 7 8 8 8 8 8 8 9 9 9
2 2 3 3 3 3 4 4 3 3 3 4 3 2 1 1 2 3 2 2 1 1 1 1 1 1 1 1 2 4 6 7 7 8 8 8 8 9 9 9 9 9 9
1 2 3 3 3 3 4 4 4 4 3 4 3 3 3 2 2 2 2 2 2 2 2 1 2 2 2 1 3 6 7 7 8 8 9 9 9 9 10 10 10 10 10
1 2 2 3 3 3 4 3 4 3 4 5 4 3 2 2 2 2 2 1 1 2 1 1 2 2 2 1 2 6 6 8 8 8 9 9 9 9 9 10 10 10 11
3 3 3 3 3 3 3 3 3 3 3 4 4 3 2 2 2 3 3 2 1 2 2 3 1 2 2 2 3 6 4 8 8 9 9 9 9 9 9 10 10 11 11
2 3 3 3 3 3 3 4 2 3 3 3 3 3 2 2 2 2 2 3 3 3 4 3 2 2 2 2 4 2 3 7 9 9 9 9 9 9 9 10 10 10 11
2 3 3 3 3 3 3 3 3 3 3 3 2 3 2 2 2 2 2 2 3 3 4 2 2 2 2 3 4 3 4 8 9 9 10 9 9 9 10 10 10 11 11
3 3 3 3 3 3 3 3 3 3 4 3 2 3 2 2 2 2 2 2 2 2 3 3 2 2 2 3 3 3 3 3 4 9 10 10 9 10 10 10 11 11 11
2 3 3 3 3 3 3 4 4 3 4 4 3 3 3 2 2 2 2 2 2 3 3 4 3 2 3 3 3 4 4 4 4 9 10 9 9 10 11 11 11 11 11
2 2 3 3 3 3 3 3 4 3 3 3 3 3 3 3 3 2 2 2 2 2 2 3 4 2 2 2 3 3 4 4 5 6 8 8 9 10 10 10 10 11 11
3 2 2 2 3 3 3 3 3 3 3 2 2 3 3 3 4 3 3 3 2 2 2 2 3 3 2 2 2 2 3 3 4 4 5 6 8 9 10 10 10 11 11
2 2 2 2 2 2 3 3 3 3 3 2 2 2 3 3 4 3 3 3 3 2 2 2 3 3 3 2 3 2 4 3 4 3 3 3 4 4 5 8 9 11 11
2 2 2 2 2 1 3 4 3 3 3 3 2 2 2 3 3 4 4 4 4 3 3 3 3 4 5 4 3 3 3 3 5 2 2 4 3 4 4 4 9 12 12
3 2 2 2 2 2 3 3 3 2 3 3 3 2 2 2 2 2 3 4 4 5 6 4 4 5 5 5 4 4 4 4 5 3 3 5 3 4 4 5 12 12 12
2 2 1 2 1 1 2 3 3 2 2 2 2 3 3 3 3 3 2 2 2 3 4 3 4 5 5 4 4 4 4 4 3 3 2 4 4 4 4 4 10 12 11
2 1 1 2 2 1 2 2 2 2 1 2 2 2 3 3 5 5 2 2 3 3 4 4 5 5 6 6 4 2 2 2 3 3 2 3 3 4 4 4 6 10 11
2 2 1 1 1 1 2 2 2 2 2 1 1 2 4 5 5 5 3 3 3 3 2 2 3 4 3 4 4 2 2 3 3 3 2 2 3 3 4 3 3 4 5
Wind_Direction
134 115 99 93 88 90 96 96 96 100 100 91 91 95 86 86 81 69 54 71 82 91 100 101 97 90 83 78 74 70 65 61 55 51 48 44 39 34 27 24 22 15 8
147 138 120 114 117 127 124 127 128 125 118 109 95 89 90 88 87 79 63 51 63 81 95 99 94 85 78 75 72 68 60 54 49 46 43 36 28 24 18 11 7 7 3
157 152 145 144 154 144 132 122 119 117 114 107 98 89 90 82 91 85 71 59 44 52 75 88 90 84 76 68 63 59 52 46 41 37 33 29 24 18 10 7 0 357 358
162 155 153 167 161 146 140 140 131 123 116 113 107 94 82 81 82 95 84 69 58 45 53 64 72 75 68 60 53 50 43 38 34 27 22 16 13 9 4 356 352 349 349
162 155 159 164 153 146 144 148 133 136 131 120 108 92 75 77 68 89 90 76 68 61 51 49 52 54 50 44 37 33 28 23 18 11 8 4 358 354 353 353 352 344 342
157 153 153 156 153 146 143 135 128 115 129 133 109 76 54 60 64 75 85 74 71 69 63 53 39 35 38 29 17 10 9 6 0 357 355 348 342 340 341 343 343 343 336
159 153 152 153 156 158 158 141 129 124 109 123 102 71 30 47 64 59 72 82 76 73 72 63 49 39 19 20 11 4 357 352 345 339 339 335 330 327 327 329 330 332 333
165 164 159 164 163 150 146 147 138 132 131 143 131 121 77 3 12 34 45 94 87 78 73 55 59 53 30 6 352 356 348 340 333 328 324 321 320 319 320 319 321 324 325
167 167 169 166 167 164 168 169 161 153 159 177 139 141 149 191 253 316 285 114 110 92 64 61 55 38 26 4 329 340 345 336 325 319 316 314 312 311 311 313 315 316 319
174 175 170 169 170 169 170 179 174 170 162 168 167 59 138 143 152 200 288 276 245 233 236 271 322 305 321 323 320 330 336 329 321 314 309 308 308 308 308 308 309 311 313
176 176 171 169 174 174 176 177 174 174 178 170 163 156 135 96 129 153 221 262 285 251 231 225 229 253 274 277 289 307 323 320 313 310 307 306 305 306 306 307 307 308 310
199 191 175 176 180 182 185 184 180 178 184 173 167 161 167 166 169 163 190 226 249 264 256 235 221 233 253 264 289 313 318 316 310 307 306 306 306 307 306 305 306 307 308
209 213 188 182 185 190 187 176 173 181 179 174 176 169 173 184 161 163 163 204 255 275 268 247 229 226 249 253 278 308 309 308 307 305 304 304 305 305 304 303 303 303 304
203 195 186 181 179 176 172 166 165 178 169 171 170 167 171 181 166 172 171 170 252 270 247 246 240 223 236 248 272 305 300 302 302 303 302 301 302 301 299 298 298 300 300
180 170 170 164 158 158 158 154 155 165 159 162 167 171 173 180 176 178 176 178 187 239 254 234 232 227 238 249 275 281 279 290 299 300 299 299 298 295 296 296 296 297 297
168 162 163 155 147 146 148 146 147 156 149 155 161 165 179 184 173 176 183 196 196 212 252 241 234 239 251 274 284 283 274 294 297 296 295 295 295 294 295 296 296 294 294
162 164 165 157 152 151 153 151 152 152 151 153 161 170 194 195 184 185 180 196 206 202 241 274 251 243 241 257 285 282 275 273 283 290 290 291 293 293 292 291 291 291 292
158 164 160 155 156 155 157 158 160 153 160 167 177 179 192 193 195 192 189 203 219 216 215 259 273 258 253 253 264 274 284 287 279 286 285 287 291 292 291 290 291 292 292
145 150 145 151 158 159 162 166 162 158 165 177 183 190 197 185 203 210 208 212 227 236 218 234 266 268 262 263 272 277 277 284 284 286 283 287 291 292 292 292 293 295 294
148 152 142 153 156 155 160 162 159 157 161 174 183 194 199 198 208 211 219 217 220 224 215 230 259 270 271 263 255 272 289 287 288 291 286 290 293 298 295 294 295 295 294
130 128 123 130 142 154 168 163 161 162 163 167 183 200 208 217 228 232 236 220 211 220 221 237 257 276 274 267 259 257 276 295 288 277 285 288 293 291 292 293 294 290 290
117 118 133 148 155 170 172 176 172 166 168 175 191 209 221 232 238 251 261 259 243 234 234 239 255 260 266 262 262 263 277 292 288 273 274 287 278 278 279 275 286 291 291
122 127 144 151 168 183 181 183 183 169 176 190 201 211 233 241 265 243 257 267 263 265 261 247 244 253 257 251 248 262 260 264 269 275 286 285 280 279 278 283 292 292 292
133 144 152 161 161 189 196 198 193 173 179 204 209 213 222 233 236 240 230 237 244 256 264 256 236 247 250 247 237 249 258 273 275 270 256 275 285 280 287 285 290 291 295
126 135 153 151 156 199 206 195 186 158 184 224 227 225 230 232 240 251 236 234 259 271 285 282 279 282 284 285 279 269 262 273 284 278 251 254 279 293 289 280 286 294 295
132 133 123 141 166 197 210 196 191 164 189 229 244 240 245 249 249 245 229 218 242 265 277 305 309 310 299 285 285 262 235 251 273 280 249 244 279 307 301 280 282 293 295